[[{"header":{"parameterUnit":"m.s-1","parameterCategory":1,"la1":30.2991,"la2":30.254,"lo1":-89.0895,"lo2":-89.0444,"dy":0.0017,"dx":0.0017,"nx":28,"ny":28,"refTime":"2025-07-06T21:00:00:Z","depth":0,"parameterNumber":2,"parameterNumberName":"U-component_of_WINDS"},"data":[0,0,0,0,0,0,0,0,0,0,0,0,0,0,0,0,0,0,0,0,0,0,0,0,0,0,0,0,0,0,0,0,0,0,0,0,0,0,0,0,0,0,0,0,0,0,0,0,0,0,0,0,0,0,0,0,0,0,3.1993,3.1994,0,3.2102,3.2103,3.2105,3.2058,3.2055,3.2053,3.205,3.2162,3.2167,3.2173,0,0,0,0,0,0,0,0,0,0,0,0,0,3.1742,3.1746,3.1993,3.1994,3.1996,3.2102,3.2103,3.2105,3.2059,3.2055,3.2052,3.2049,3.216,3.2167,3.2173,0,0,0,0,0,0,0,0,0,0,0,0,0,3.1851,3.1748,3.1993,3.1985,3.1986,3.2102,3.2104,3.2105,3.2059,3.2055,3.2051,3.2048,3.2158,3.2166,3.2174,3.2304,0,0,3.2199,3.2203,0,0,0,0,0,0,0,0,3.1845,3.186,3.1985,3.1986,3.1987,3.2062,3.2056,3.2172,3.206,3.2031,3.205,3.2046,3.2132,3.2142,3.2171,3.2309,3.2314,3.22,3.2205,3.2208,3.2211,0,0,0,0,0,0,0,3.1837,3.1855,3.2036,3.1987,3.1988,3.1976,3.1987,3.2078,3.2103,3.2033,3.203,3.2044,3.2132,3.2164,3.2174,3.2316,3.22,3.2207,3.2212,3.2215,3.2561,3.2565,0,0,0,0,0,0,3.183,3.1849,3.2033,3.2039,3.1904,3.1983,3.1996,3.2042,3.2101,3.2107,3.2047,3.2041,3.2152,3.2164,3.2177,3.233,3.2208,3.2216,3.2221,3.2557,3.2562,3.2567,0,0,0,0,0,0,3.1824,3.1847,3.2028,3.1943,3.1966,3.1992,3.2044,3.2046,3.2078,3.2112,3.2116,3.2075,3.2149,3.2166,3.2272,3.2334,3.222,3.2227,3.2552,3.2559,3.2565,3.2639,0,0,0,0,0,0,3.1817,3.1845,3.1895,3.1945,3.197,3.2122,3.2048,3.2051,3.2092,3.2086,3.2139,3.2144,3.2147,3.226,3.228,3.2343,3.2233,3.2546,3.2555,3.2563,3.2632,3.2648,3.2661,0,0,0,0,0,3.1809,3.1913,3.1898,3.192,3.2034,3.2126,3.214,3.2141,3.2098,3.2147,3.2169,3.2143,3.2324,3.2271,3.2293,3.236,3.2543,3.2553,3.2562,3.2625,3.2644,3.2661,0,0,0,0,0,0,3.187,3.1919,3.1903,3.2027,3.2072,3.2117,3.2181,3.2163,3.2221,3.2213,3.2212,3.2224,3.2333,3.2357,3.2298,3.2487,3.2427,3.2441,3.2467,3.2486,3.25,3.2492,3.224,0,0,0,0,0,3.1898,3.1969,3.2008,3.2113,3.2136,3.2155,3.2195,3.2192,3.2239,3.2258,3.2287,3.2333,3.24,3.2444,3.2508,3.2635,3.2644,3.2691,3.2706,3.2718,3.2731,3.2796,3.2816,3.2599,3.2599,3.2598,0,0,3.1957,3.1992,3.2037,3.2126,3.2161,3.2233,3.2171,3.2251,3.2304,3.227,3.2371,3.2394,3.2445,3.2561,3.2614,3.2585,3.2793,3.2731,3.274,3.2746,3.2808,3.2829,3.2847,3.2605,3.2604,3.2603,0,0,3.21,3.2135,3.2224,3.226,3.2313,3.2324,3.2346,3.2394,3.2407,3.2508,3.2483,3.2546,3.2663,3.2699,3.2733,3.2887,3.2864,3.2908,3.2986,3.305,3.3067,3.3082,3.3134,3.3153,3.292,3.2921,3.2921,0,3.2166,3.2274,3.2273,3.2354,3.2393,3.2364,3.2454,3.2489,3.256,3.2587,3.2553,3.2696,3.273,3.2852,3.2889,3.2919,3.2941,3.2901,3.3064,3.308,3.3094,3.3143,3.3163,3.2925,3.2925,3.2924,3.2924,0,3.2351,3.2426,3.2492,3.256,3.2607,3.2692,3.2703,3.275,3.2742,3.2756,3.2858,3.2896,3.2966,3.2995,3.2989,3.3116,3.3096,3.3064,3.3003,3.3119,3.3166,3.3185,3.2932,3.293,3.2929,3.2928,0,0,3.2537,3.2602,3.2626,3.2655,3.271,3.2768,3.2851,3.2918,3.2957,3.3007,3.3075,3.3173,3.3142,3.3181,3.3178,3.3235,3.335,3.3195,3.3196,3.322,3.3489,3.3512,3.3534,3.3336,3.334,3.3343,3.3484,0,3.2682,3.2827,3.2827,3.296,3.3028,3.3001,3.3072,3.3113,3.3128,3.3187,3.3204,3.3272,3.3228,3.3251,3.3305,3.3325,3.3404,3.3315,3.3397,3.34,3.3383,3.3559,3.3584,3.3716,3.3503,3.3506,3.3508,0,3.2871,3.2925,3.3065,3.3107,3.3136,3.32,3.326,3.3318,3.3363,3.337,3.3411,3.34,3.3482,3.342,3.3532,3.3471,3.3505,3.3519,3.3524,3.353,3.346,3.3568,3.3758,3.3777,3.3537,3.3535,3.3533,0,3.2989,3.3097,3.3194,3.322,3.3273,3.3319,3.3343,3.3384,3.3423,3.3476,3.3501,3.3563,3.3596,3.3644,3.3648,3.3603,3.376,3.3699,3.3766,3.3766,3.38,3.3797,3.3996,3.3825,3.3825,3.3824,3.3824,0,3.315,3.3236,3.3247,3.3307,3.3401,3.34,3.3494,3.3514,3.355,3.3611,3.3592,3.365,3.3653,3.3713,3.3717,3.3807,3.3823,3.383,3.3829,3.383,3.3829,3.3851,3.3841,3.383,3.3829,3.3828,3.3827,0,3.3298,3.331,3.3412,3.3453,3.3465,3.3533,3.3567,3.3623,3.3635,3.3713,3.3731,3.3751,3.3819,3.3828,3.3909,3.3911,3.4019,3.4011,3.4004,3.4002,3.4068,3.406,3.4286,3.4314,3.4127,3.4129,3.413,0,3.3399,3.3464,3.3511,3.3551,3.3577,3.3642,3.3681,3.3682,3.3724,3.3778,3.3827,3.3893,3.3946,3.4056,3.4076,3.4137,3.4128,3.4203,3.4137,3.4135,3.4126,3.4121,3.4126,3.4215,3.4217,3.4219,3.422,0,3.3577,3.3578,3.3636,3.3696,3.3743,3.379,3.3834,3.3867,3.3873,3.3921,3.399,3.4031,3.4112,3.4177,3.4236,3.426,3.424,3.4241,3.4259,3.426,3.4252,3.4254,3.4036,3.4235,3.4234,3.4233,3.4232,3.4231,3.3703,3.3758,3.3799,3.3863,3.3896,3.3937,3.399,3.4008,3.4066,3.4131,3.4128,3.4203,3.4244,3.4321,3.4349,3.4407,3.4382,3.441,3.4416,3.4422,3.4427,3.4244,3.4418,3.4418,3.4417,3.4417,3.4417,0,3.3877,3.3901,3.396,3.4021,3.4071,3.4049,3.4095,3.4138,3.4205,3.4244,3.4296,3.4374,3.4436,3.4461,3.4521,3.4563,3.4555,3.4578,3.4574,3.4579,3.4447,3.4424,3.4583,3.4583,3.4583,3.4583,3.4583,3.4583,3.3973,3.4064,3.4071,3.4177,3.42,3.4274,3.4302,3.4339,3.4369,3.4457,3.4508,3.4524,3.4557,3.4619,3.4674,3.468,3.4702,3.4729,3.473,3.4606,3.4589,3.4573,3.4551,3.4734,3.4734,3.4857,3.4858,3.4859]},{"header":{"parameterUnit":"m.s-1","parameterCategory":1,"la1":30.2991,"la2":30.254,"lo1":-89.0895,"lo2":-89.0444,"dy":0.0017,"dx":0.0017,"nx":28,"ny":28,"refTime":"2025-07-06T21:00:00:Z","depth":0,"parameterNumber":3,"parameterNumberName":"V-component_of_WINDS"},"data":[0,0,0,0,0,0,0,0,0,0,0,0,0,0,0,0,0,0,0,0,0,0,0,0,0,0,0,0,0,0,0,0,0,0,0,0,0,0,0,0,0,0,0,0,0,0,0,0,0,0,0,0,0,0,0,0,0,0,1.1132,1.1132,0,1.1083,1.1082,1.1081,1.1009,1.1008,1.1006,1.1005,1.0955,1.0955,1.0954,0,0,0,0,0,0,0,0,0,0,0,0,0,1.1164,1.1164,1.1132,1.1132,1.1131,1.1083,1.1082,1.1081,1.1009,1.1008,1.1006,1.1005,1.0955,1.0955,1.0954,0,0,0,0,0,0,0,0,0,0,0,0,0,1.1136,1.1164,1.1133,1.1089,1.1085,1.1083,1.1082,1.1081,1.1009,1.1008,1.1006,1.1004,1.0955,1.0955,1.0954,1.0991,0,0,1.0954,1.0954,0,0,0,0,0,0,0,0,1.1138,1.1135,1.1096,1.1092,1.1087,1.105,1.1074,1.1051,1.101,1.1038,1.1005,1.1003,1.0988,1.0985,1.098,1.0988,1.0986,1.0954,1.0954,1.0953,1.0953,0,0,0,0,0,0,0,1.114,1.1136,1.1113,1.1096,1.109,1.1072,1.1066,1.107,1.1024,1.1036,1.103,1.1025,1.0985,1.098,1.0978,1.0986,1.0954,1.0953,1.0953,1.0953,1.1019,1.1021,0,0,0,0,0,0,1.1148,1.1139,1.1114,1.1111,1.1108,1.1073,1.1066,1.1064,1.1024,1.1016,1.1027,1.1022,1.0982,1.0978,1.0976,1.1015,1.0953,1.0953,1.0953,1.1017,1.102,1.1022,0,0,0,0,0,0,1.1149,1.1146,1.1116,1.1123,1.1118,1.1074,1.1073,1.1064,1.1059,1.1018,1.1009,1.103,1.098,1.0976,1.0987,1.1012,1.0953,1.0953,1.1015,1.1018,1.1021,1.1094,0,0,0,0,0,0,1.115,1.1147,1.1161,1.1124,1.1118,1.1129,1.1074,1.1064,1.1059,1.1052,1.1018,1.1011,1.0978,1.0988,1.0987,1.1011,1.0953,1.1013,1.1016,1.102,1.1089,1.1099,1.1107,0,0,0,0,0,1.1151,1.1184,1.1162,1.116,1.1134,1.1131,1.1127,1.1088,1.1061,1.1074,1.1047,1.1012,1.1009,1.099,1.0988,1.1012,1.1011,1.1015,1.102,1.1085,1.1097,1.1107,0,0,0,0,0,0,1.1226,1.1179,1.1154,1.1176,1.1158,1.1118,1.1134,1.1103,1.1092,1.1086,1.1039,1.1032,1.1048,1.1031,1.101,1.1044,1.1005,1.1009,1.1055,1.1066,1.1075,1.1079,1.0952,0,0,0,0,0,1.1245,1.1246,1.1204,1.1227,1.1219,1.1178,1.1175,1.1147,1.1126,1.1119,1.1092,1.1074,1.1068,1.1066,1.1059,1.1086,1.1077,1.1101,1.111,1.1118,1.1122,1.1133,1.1143,1.1036,1.1036,1.1036,0,0,1.1284,1.1258,1.1262,1.1242,1.1224,1.1226,1.1173,1.1177,1.1177,1.1119,1.1128,1.1108,1.1083,1.1102,1.1109,1.1088,1.115,1.1123,1.113,1.113,1.1139,1.1149,1.1158,1.1039,1.1038,1.1038,0,0,1.1356,1.1337,1.1353,1.1337,1.1311,1.1283,1.1287,1.1252,1.1236,1.1244,1.12,1.1199,1.1191,1.1175,1.1167,1.123,1.1197,1.1229,1.1277,1.1288,1.1297,1.1304,1.1326,1.1335,1.1233,1.1234,1.1234,0,1.1408,1.1409,1.1366,1.1373,1.1364,1.1311,1.1327,1.1313,1.1286,1.1281,1.1258,1.1246,1.1226,1.1239,1.1255,1.1249,1.1252,1.1233,1.1299,1.1306,1.1312,1.1332,1.1341,1.1238,1.1237,1.1237,1.1236,0,1.1474,1.1475,1.1491,1.1466,1.1459,1.1471,1.1429,1.1428,1.1399,1.1374,1.1381,1.1355,1.1341,1.1341,1.1314,1.135,1.1338,1.1308,1.1267,1.1327,1.1345,1.1353,1.1243,1.1242,1.1241,1.124,0,0,1.1593,1.1542,1.1549,1.1536,1.1503,1.1503,1.1511,1.1496,1.1496,1.1478,1.1484,1.1477,1.1448,1.1438,1.1408,1.1418,1.1469,1.1386,1.1385,1.1402,1.1505,1.1529,1.1538,1.1446,1.1447,1.1448,1.1507,0,1.1658,1.167,1.163,1.1652,1.1651,1.1599,1.1606,1.1586,1.1561,1.1557,1.153,1.1526,1.1488,1.1482,1.1489,1.1461,1.1489,1.1456,1.145,1.145,1.1458,1.1548,1.1573,1.163,1.1514,1.1515,1.1516,0,1.1737,1.1723,1.1744,1.1707,1.1706,1.1713,1.1695,1.1692,1.1668,1.1649,1.1637,1.1601,1.1606,1.1567,1.1571,1.155,1.1545,1.153,1.1531,1.153,1.1487,1.1548,1.1647,1.1656,1.1527,1.1526,1.1526,0,1.1821,1.1807,1.1818,1.1808,1.1766,1.1772,1.1755,1.1728,1.1722,1.1706,1.1701,1.1687,1.1679,1.1668,1.163,1.1605,1.1639,1.1597,1.1623,1.1624,1.1633,1.1633,1.1732,1.163,1.1629,1.1629,1.1629,0,1.1898,1.1913,1.1855,1.1861,1.1876,1.183,1.1845,1.1823,1.1799,1.18,1.1754,1.1755,1.1704,1.1699,1.1669,1.1677,1.1674,1.1658,1.165,1.1662,1.1664,1.1659,1.1654,1.1631,1.1631,1.1631,1.163,0,1.1995,1.1957,1.1964,1.1923,1.1913,1.1926,1.189,1.1894,1.1866,1.1867,1.1865,1.1821,1.1813,1.1773,1.1756,1.1735,1.1753,1.1737,1.1762,1.1756,1.1785,1.1782,1.1884,1.1894,1.1786,1.1787,1.1788,0,1.2047,1.2057,1.2016,1.2013,1.1998,1.1994,1.1986,1.1941,1.1935,1.1906,1.1914,1.1902,1.189,1.1879,1.1845,1.1831,1.1814,1.185,1.1812,1.1823,1.1814,1.1814,1.1814,1.1859,1.186,1.1862,1.1863,0,1.2143,1.2123,1.2114,1.2098,1.209,1.2076,1.2058,1.2058,1.2008,1.2003,1.1994,1.1985,1.1966,1.1955,1.1935,1.1916,1.1881,1.1875,1.188,1.1893,1.1907,1.1899,1.1784,1.1873,1.1872,1.1871,1.187,1.187,1.2218,1.2224,1.2197,1.2188,1.2169,1.2154,1.2155,1.2126,1.2118,1.21,1.2073,1.2067,1.204,1.2009,1.1993,1.1987,1.1967,1.1975,1.1977,1.198,1.1986,1.1907,1.1983,1.1983,1.1983,1.1982,1.1982,0,1.2312,1.2291,1.2283,1.226,1.2252,1.2219,1.2197,1.2193,1.2189,1.2167,1.2155,1.2144,1.2132,1.2097,1.2081,1.2083,1.2066,1.208,1.208,1.2075,1.2005,1.2002,1.2094,1.2094,1.2094,1.2094,1.2094,1.2094,1.2359,1.2367,1.2344,1.2342,1.232,1.2314,1.2304,1.2289,1.2271,1.2261,1.225,1.2227,1.2199,1.218,1.2167,1.2157,1.2153,1.2172,1.2157,1.2091,1.2081,1.2071,1.2067,1.2172,1.2172,1.2228,1.2228,1.2229]}]]